Location: Pl�tzky
(52.0521°N, 11.8020°E)
Time: 09:33:35
(UTC+00:00)

N. Korean satellite - Pass Details

Date: 02 February 2021
Orbit: 451 x 502 km, 97.2° (Epoch: 07 March)

Event Time Altitude Azimuth Distance (km) Brightness Sun altitude
Rises 05:49:03 0° 2° (N) 2,497 10.0 -9.7°
Reaches altitude 10° 05:51:24 10° 347° (NNW) 1,610 8.9 -9.4°
Maximum altitude 05:54:05 22° 296° (WNW) 1,062 7.7 -9.0°
Drops below altitude 10° 05:56:45 10° 244° (WSW) 1,590 8.7 -8.6°
Sets 05:59:04 0° 228° (SW) 2,456 9.8 -8.3°
